SWA4152 KAUS-KBNA

Flight info

Callsign SWA4152
Flight time N/A
Altitude 37000
Route ILEXY4 ZENZI LFK ELD J29 CARIN MEMFS CHSNE3
Aircraft B738/M-SADE2E3GIJ4RWZ/LB1D1

Departure

Time 2026-04-30 22:51
Airport Austin Bergstrom International Airport (KAUS)

Arrival

Time N/A
Airport Nashville International Airport (KBNA)
Time Latitude Longitude Altitude Speed Heading
2026-04-30 21:44 30.20139 -97.66762 500 ft 0 kts 15°
2026-04-30 22:41 30.20111 -97.66771 500 ft 2 kts 15°
2026-04-30 22:41 30.20081 -97.66784 500 ft 2 kts 56°
2026-04-30 22:42 30.20078 -97.66800 500 ft 1 kts 108°
2026-04-30 22:43 30.19992 -97.66690 500 ft 12 kts 175°
2026-04-30 22:43 30.19842 -97.66652 500 ft 11 kts 116°
2026-04-30 22:44 30.19841 -97.66476 500 ft 11 kts 87°
2026-04-30 22:45 30.19846 -97.65954 480 ft 18 kts 98°
2026-04-30 22:45 30.19639 -97.65898 478 ft 16 kts 178°
2026-04-30 22:46 30.19434 -97.65889 484 ft 14 kts 178°
2026-04-30 22:47 30.19055 -97.65879 488 ft 16 kts 180°
2026-04-30 22:47 30.18786 -97.65873 487 ft 23 kts 179°
2026-04-30 22:48 30.18464 -97.65865 477 ft 20 kts 179°
2026-04-30 22:49 30.18071 -97.65855 477 ft 17 kts 178°
2026-04-30 22:49 30.17918 -97.65798 484 ft 5 kts 92°
2026-04-30 22:50 30.19075 -97.65756 485 ft 138 kts 358°
2026-04-30 22:51 30.21436 -97.65783 1069 ft 184 kts
2026-04-30 22:51 30.24317 -97.66017 1668 ft 229 kts 358°
2026-04-30 22:52 30.25969 -97.66019 1928 ft 248 kts 15°
2026-04-30 22:52 30.28331 -97.63259 2991 ft 257 kts 73°
2026-04-30 22:53 30.29139 -97.59194 4351 ft 260 kts 80°
2026-04-30 22:53 30.29840 -97.55027 5606 ft 268 kts 79°
2026-04-30 22:53 30.30205 -97.52907 6340 ft 269 kts 79°
2026-04-30 22:54 30.30972 -97.48523 7372 ft 286 kts 80°
2026-04-30 22:55 30.32212 -97.41554 9286 ft 304 kts 81°
2026-04-30 22:55 30.33089 -97.36631 10365 ft 329 kts 81°
2026-04-30 22:56 30.34069 -97.31134 11028 ft 361 kts 80°
2026-04-30 22:56 30.35621 -97.22440 12839 ft 377 kts 79°
2026-04-30 22:57 30.35856 -97.16324 14011 ft 387 kts 97°
2026-04-30 22:57 30.35405 -97.10024 15181 ft 398 kts 96°
2026-04-30 22:58 30.35012 -97.03530 16373 ft 410 kts 95°
2026-04-30 22:59 30.34425 -96.93436 18134 ft 427 kts 95°
2026-04-30 22:59 30.33803 -96.82974 19735 ft 440 kts 95°